Location: Washington
(38.8950°N, 77.0370°W)
Time: 22:03:49
(UTC-04:00)

IDEFIX/ARIANE 42P - Visible Passes

Search period start: 20 September 2014 00:00
Search period end: 30 September 2014 00:00
Orbit: 787 x 803 km, 98.3° (Epoch: 18 September)

Date Brightness Start Highest point End Pass type
(mag) Time Alt. Az. Time Alt. Az. Time Alt. Az.
20 Sep 2.7 20:18:04 11° SE 20:22:52 50° ENE 20:27:55 10° N visible
20 Sep 5.0 21:59:14 10° SW 22:02:44 18° W 22:06:17 10° NW visible
21 Sep 3.5 19:50:34 10° SE 19:54:56 28° ENE 19:59:20 10° N visible
21 Sep 4.0 21:30:36 14° SSW 21:34:24 33° W 21:39:07 10° NNW visible
22 Sep 2.9 21:02:17 18° S 21:06:10 63° W 21:11:22 10° NNW visible
23 Sep 2.5 20:33:59 17° SSE 20:38:03 71° ENE 20:43:16 10° N visible
23 Sep 5.3 22:15:59 10° WSW 22:18:10 13° W 22:20:21 10° WNW visible
24 Sep 3.1 20:05:41 12° SE 20:10:03 39° ENE 20:14:53 10° N visible
24 Sep 4.6 21:46:31 14° SW 21:49:45 24° W 21:53:56 10° NW visible
25 Sep 3.8 19:38:15 10° ESE 19:42:11 22° ENE 19:46:07 10° NNE visible
25 Sep 3.6 21:18:13 20° SSW 21:21:27 44° W 21:26:27 10° NNW visible
26 Sep 2.6 20:49:55 23° S 20:53:17 82° WSW 20:58:33 10° NNW visible
27 Sep 2.7 20:21:37 19° SE 20:25:13 54° ENE 20:30:19 10° N visible
27 Sep 5.0 22:02:27 12° SW 22:05:08 17° W 22:08:29 10° NW visible
28 Sep 3.4 19:53:19 13° SE 19:57:16 30° ENE 20:01:47 10° N visible
28 Sep 4.2 21:34:10 20° SW 21:36:47 31° W 21:41:25 10° NW visible
29 Sep 4.1 19:26:08 10° ESE 19:29:26 17° ENE 19:32:46 10° NNE visible
29 Sep 3.0 21:05:52 28° S 21:08:32 58° W 21:13:43 10° NNW visible
